Location: *
(52.2090°N, 4.1550°W)
Time: 07:22:38
(UTC+00:00)

CZ-2C R/B - Pass Details

Date: 19 July 2019
Orbit: 784 x 871 km, 98.3° (Epoch: 26 August)

Event Time Altitude Azimuth Distance (km) Brightness Sun altitude
Rises 22:38:18 0° 10° (N) 3,338 6.8 -13.5°
Reaches altitude 10° 22:40:48 10° 2° (N) 2,391 6.1 -13.7°
Maximum altitude 22:45:35 37° 297° (WNW) 1,222 4.0 -14.0°
Drops below altitude 10° 22:50:18 10° 231° (SW) 2,346 4.9 -14.3°
Sets 22:52:44 0° 224° (SW) 3,267 5.5 -14.4°
